Location: Bucksport
(44.6167°N, 68.8000°W)
Time: 04:42:57
(UTC-05:00)

Envisat - Visible Passes

Search period start: 21 February 2019 00:00
Search period end: 03 March 2019 00:00
Orbit: 764 x 766 km, 98.2° (Epoch: 21 February)

Date Brightness Start Highest point End Pass type
(mag) Time Alt. Az. Time Alt. Az. Time Alt. Az.
21 Feb 3.1 18:16:03 10° SSE 18:21:09 82° WSW 18:26:16 10° NNW visible
22 Feb 3.2 17:39:38 10° SE 17:44:28 47° ENE 17:49:21 10° N visible
22 Feb 5.4 19:19:48 10° SW 19:23:44 22° W 19:27:42 10° NW visible
23 Feb 6.3 05:48:13 10° ENE 05:50:54 14° E 05:53:35 10° ESE visible
23 Feb 4.1 18:41:51 10° S 18:46:44 47° W 18:51:39 10° NNW visible
24 Feb 3.0 18:04:51 10° SSE 18:09:56 81° ENE 18:15:02 10° NNW visible
24 Feb 6.1 19:47:18 10° WSW 19:49:35 13° W 19:51:52 10° WNW visible
25 Feb 5.1 19:08:06 10° SSW 19:12:25 28° W 19:16:47 10° NW visible
26 Feb 6.7 05:38:08 10° ENE 05:39:33 11° E 05:40:57 10° ESE visible
26 Feb 3.6 18:30:29 10° S 18:35:29 60° W 18:40:32 10° NNW visible
27 Feb 3.0 17:53:44 10° SSE 17:58:44 65° ENE 18:03:47 10° N visible
27 Feb 5.9 19:35:04 10° SW 19:38:13 16° W 19:41:24 10° NW visible
28 Feb 4.7 18:56:32 10° SSW 19:01:08 35° W 19:05:47 10° NNW visible
01 Mar 3.2 18:19:11 10° S 18:24:15 75° WSW 18:29:22 10° NNW visible
02 Mar 5.6 19:23:08 10° SW 19:26:53 21° W 19:30:40 10° NW visible
